星链-34387 (STARLINK-34387)

导读 | 豆包AI

STARLINK-34387是美国SpaceX星链星座的卫星,于2025年6月8日发射入轨。星链计划旨在构建全球卫星互联网,为全球偏远、缺乏网络覆盖的区域提供高速宽带服务。该卫星延续星链设计思路,依托星座组网能力,服务地面通信需求,进一步拓展了星链星座的覆盖规模与服务能力。

基本信息
目录编号:
64315
目录名称:
STARLINK-34387
国际标识:
2025-123AA
轨道中心:
EARTH
卫星名称:
星链-34387
卫星全名:
星链-34387 (STARLINK-34387)
卫星状态:
在轨 (已飞行279 天)
发射日期:
2025-06-08 UTC
国别 :
美国 (US)
星等 :
--
轨道信息
数据来源 国际轨道数据
星历时间: 2026-03-14T15:33:41+0800
9小时前
查看轨道信息
半长轴: 6950.155km
偏心率: 0.0003345
轨道倾角: 70.003°
近地点辐角 268.547°
升交点赤经 182.700°
平近点角 91.531°
近地点: 569.693km
远地点: 574.343km
周期: 96.106分钟
每日圈数: 14.983425
详细信息
固有亮度:
5
最大亮度:
2.5
卫星平台:
Starlink V1.0
覆盖范围:
全球
运营商:
太空探索技术公司
运营商所在国:
美国
制造商(研发单位):
太空探索技术公司
制造商所在国:
美国
使用方式:
暂无
卫星简介
Starlink 计划是 SpaceX 推出的全球卫星互联网项目,通过发射低轨道卫星,为全球尤其是偏远地区提供高速、低延迟的互联网服务。自 2019 年起,Starlink 已部署数千颗卫星,旨在缩小全球数字鸿沟,推动互联网普及。该项目还为军事、航空等行业提供通信支持,带来广泛经济效益。
2D轨道图
3D轨道图
轨道高度分析图
轨道倾角分析图
轨道综合分析图
查看轨道综合分析图